Year,Month,Day,Hour,Minute,Value (Times are PST for windspeed in km/hr)
2010,06,03,00,00,9.30
2010,06,03,00,01,13.60
2010,06,03,00,02,11.70
2010,06,03,00,03,12.60
2010,06,03,00,04,13.70
2010,06,03,00,05,14.70
2010,06,03,00,06,11.60
2010,06,03,00,07,13.80
2010,06,03,00,08,14.40
2010,06,03,00,09,9.10
2010,06,03,00,10,11.00
2010,06,03,00,11,12.10
2010,06,03,00,12,10.50
2010,06,03,00,13,18.30
2010,06,03,00,14,14.60
2010,06,03,00,15,15.30
2010,06,03,00,16,13.30
2010,06,03,00,17,13.60
2010,06,03,00,18,12.00
2010,06,03,00,19,10.30
2010,06,03,00,20,8.60
2010,06,03,00,21,6.90
2010,06,03,00,22,13.50
2010,06,03,00,23,8.30
2010,06,03,00,24,9.00
2010,06,03,00,25,4.50
2010,06,03,00,26,7.90
2010,06,03,00,27,13.70
2010,06,03,00,28,7.70
2010,06,03,00,29,14.50
2010,06,03,00,30,11.90
2010,06,03,00,31,10.80
2010,06,03,00,32,9.20
2010,06,03,00,33,2.70
2010,06,03,00,34,5.00
2010,06,03,00,35,6.80
2010,06,03,00,36,8.10
2010,06,03,00,37,5.90
2010,06,03,00,38,7.10
2010,06,03,00,39,8.80
2010,06,03,00,40,6.10
2010,06,03,00,41,4.10
2010,06,03,00,42,3.40
2010,06,03,00,43,5.40
2010,06,03,00,44,2.90
2010,06,03,00,45,5.90
2010,06,03,00,46,6.40
2010,06,03,00,47,5.20
2010,06,03,00,48,3.50
2010,06,03,00,49,7.90
2010,06,03,00,50,10.30
2010,06,03,00,51,4.70
2010,06,03,00,52,5.20
2010,06,03,00,53,4.60
2010,06,03,00,54,4.20
2010,06,03,00,55,1.90
2010,06,03,00,56,4.00
2010,06,03,00,57,4.70
2010,06,03,00,58,4.90
2010,06,03,00,59,2.40
2010,06,03,01,00,3.50
2010,06,03,01,01,0.30
2010,06,03,01,02,7.30
2010,06,03,01,03,7.20
2010,06,03,01,04,5.30
2010,06,03,01,05,3.00
2010,06,03,01,06,2.50
2010,06,03,01,07,1.20
2010,06,03,01,08,4.30
2010,06,03,01,09,5.30
2010,06,03,01,10,3.00
2010,06,03,01,11,6.10
2010,06,03,01,12,3.60
2010,06,03,01,13,6.40
2010,06,03,01,14,3.00
2010,06,03,01,15,6.70
2010,06,03,01,16,6.40
2010,06,03,01,17,4.00
2010,06,03,01,18,4.10
2010,06,03,01,19,3.10
2010,06,03,01,20,5.70
2010,06,03,01,21,5.60
2010,06,03,01,22,7.60
2010,06,03,01,23,3.40
2010,06,03,01,24,5.50
2010,06,03,01,25,2.30
2010,06,03,01,26,2.60
2010,06,03,01,27,6.40
2010,06,03,01,28,5.50
2010,06,03,01,29,6.30
2010,06,03,01,30,6.20
2010,06,03,01,31,5.40
2010,06,03,01,32,4.70
2010,06,03,01,33,1.20
2010,06,03,01,34,5.10
2010,06,03,01,35,8.30
2010,06,03,01,36,6.20
2010,06,03,01,37,5.10
2010,06,03,01,38,4.10
2010,06,03,01,39,4.80
2010,06,03,01,40,3.90
2010,06,03,01,41,8.00
2010,06,03,01,42,12.60
2010,06,03,01,43,5.70
2010,06,03,01,44,5.40
2010,06,03,01,45,8.60
2010,06,03,01,46,8.70
2010,06,03,01,47,7.80
2010,06,03,01,48,4.10
2010,06,03,01,49,7.40
2010,06,03,01,50,9.20
2010,06,03,01,51,8.00
2010,06,03,01,52,7.50
2010,06,03,01,53,3.70
2010,06,03,01,54,7.20
2010,06,03,01,55,9.10
2010,06,03,01,56,7.60
2010,06,03,01,57,7.20
2010,06,03,01,58,7.70
2010,06,03,01,59,8.20
2010,06,03,02,00,9.40
2010,06,03,02,01,3.90
2010,06,03,02,02,5.60
2010,06,03,02,03,6.60
2010,06,03,02,04,4.40
2010,06,03,02,05,2.40
2010,06,03,02,06,6.00
2010,06,03,02,07,5.30
2010,06,03,02,08,6.50
2010,06,03,02,09,5.80
2010,06,03,02,10,6.00
2010,06,03,02,11,9.30
2010,06,03,02,12,9.00
2010,06,03,02,13,13.80
2010,06,03,02,14,10.60
2010,06,03,02,15,7.80
2010,06,03,02,16,5.80
2010,06,03,02,17,5.70
2010,06,03,02,18,7.40
2010,06,03,02,19,5.00
2010,06,03,02,20,4.80
2010,06,03,02,21,4.60
2010,06,03,02,22,8.10
2010,06,03,02,23,8.80
2010,06,03,02,24,7.90
2010,06,03,02,25,3.60
2010,06,03,02,26,8.90
2010,06,03,02,27,8.50
2010,06,03,02,28,4.80
2010,06,03,02,29,7.00
2010,06,03,02,30,3.80
2010,06,03,02,31,3.30
2010,06,03,02,32,4.40
2010,06,03,02,33,3.50
2010,06,03,02,34,2.30
2010,06,03,02,35,2.20
2010,06,03,02,36,6.60
2010,06,03,02,37,7.00
2010,06,03,02,38,1.40
2010,06,03,02,39,3.00
2010,06,03,02,40,3.60
2010,06,03,02,41,1.40
2010,06,03,02,42,2.40
2010,06,03,02,43,3.50
2010,06,03,02,44,2.10
2010,06,03,02,45,1.40
2010,06,03,02,46,2.40
2010,06,03,02,47,0.10
2010,06,03,02,48,1.90
2010,06,03,02,49,3.30
2010,06,03,02,50,5.60
2010,06,03,02,51,5.10
2010,06,03,02,52,3.00
2010,06,03,02,53,2.80
2010,06,03,02,54,3.80
2010,06,03,02,55,5.10
2010,06,03,02,56,1.80
2010,06,03,02,57,5.50
2010,06,03,02,58,2.50
2010,06,03,02,59,3.50
2010,06,03,03,00,9.10
2010,06,03,03,01,7.10
2010,06,03,03,02,6.50
2010,06,03,03,03,3.50
2010,06,03,03,04,4.40
2010,06,03,03,05,2.00
2010,06,03,03,06,3.50
2010,06,03,03,07,5.80
2010,06,03,03,08,12.20
2010,06,03,03,09,10.30
2010,06,03,03,10,8.30
2010,06,03,03,11,8.00
2010,06,03,03,12,12.60
2010,06,03,03,13,8.00
2010,06,03,03,14,9.50
2010,06,03,03,15,11.90
2010,06,03,03,16,8.30
2010,06,03,03,17,8.10
2010,06,03,03,18,12.00
2010,06,03,03,19,14.60
2010,06,03,03,20,13.10
2010,06,03,03,21,17.40
2010,06,03,03,22,10.80
2010,06,03,03,23,5.90
2010,06,03,03,24,11.80
2010,06,03,03,25,12.40
2010,06,03,03,26,13.90
2010,06,03,03,27,11.40
2010,06,03,03,28,9.70
2010,06,03,03,29,7.40
2010,06,03,03,30,9.70
2010,06,03,03,31,11.50
2010,06,03,03,32,14.70
2010,06,03,03,33,8.90
2010,06,03,03,34,10.00
2010,06,03,03,35,6.60
2010,06,03,03,36,5.80
2010,06,03,03,37,12.50
2010,06,03,03,38,5.70
2010,06,03,03,39,2.50
2010,06,03,03,40,6.00
2010,06,03,03,41,4.30
2010,06,03,03,42,3.00
2010,06,03,03,43,4.30
2010,06,03,03,44,3.90
2010,06,03,03,45,2.20
2010,06,03,03,46,0.80
2010,06,03,03,47,2.60
2010,06,03,03,48,2.40
2010,06,03,03,49,4.40
2010,06,03,03,50,2.00
2010,06,03,03,51,2.30
2010,06,03,03,52,0.60
2010,06,03,03,53,0.70
2010,06,03,03,54,1.90
2010,06,03,03,55,3.20
2010,06,03,03,56,0.00
2010,06,03,03,57,0.00
2010,06,03,03,58,0.00
2010,06,03,03,59,1.30
2010,06,03,04,00,1.60
2010,06,03,04,01,1.30
2010,06,03,04,02,1.20
2010,06,03,04,03,1.90
2010,06,03,04,04,3.50
2010,06,03,04,05,2.20
2010,06,03,04,06,2.70
2010,06,03,04,07,3.00
2010,06,03,04,08,8.50
2010,06,03,04,09,0.80
2010,06,03,04,10,0.50
2010,06,03,04,11,0.40
2010,06,03,04,12,0.50
2010,06,03,04,13,0.40
2010,06,03,04,14,1.80
2010,06,03,04,15,0.70
2010,06,03,04,16,3.30
2010,06,03,04,17,2.00
2010,06,03,04,18,4.30
2010,06,03,04,19,6.40
2010,06,03,04,20,7.70
2010,06,03,04,21,5.10
2010,06,03,04,22,5.30
2010,06,03,04,23,3.70
2010,06,03,04,24,1.60
2010,06,03,04,25,1.50
2010,06,03,04,26,1.50
2010,06,03,04,27,0.00
2010,06,03,04,28,0.20
2010,06,03,04,29,0.90
2010,06,03,04,30,3.50
2010,06,03,04,31,5.30
2010,06,03,04,32,5.80
2010,06,03,04,33,3.20
2010,06,03,04,34,3.60
2010,06,03,04,35,3.50
2010,06,03,04,36,2.40
2010,06,03,04,37,3.10
2010,06,03,04,38,3.10
2010,06,03,04,39,5.10
2010,06,03,04,40,3.60
2010,06,03,04,41,2.10
2010,06,03,04,42,1.20
2010,06,03,04,43,1.60
2010,06,03,04,44,2.70
2010,06,03,04,45,1.70
2010,06,03,04,46,2.40
2010,06,03,04,47,4.30
2010,06,03,04,48,5.30
2010,06,03,04,49,4.70
2010,06,03,04,50,4.10
2010,06,03,04,51,1.50
2010,06,03,04,52,0.40
2010,06,03,04,53,2.70
2010,06,03,04,54,2.80
2010,06,03,04,55,1.90
2010,06,03,04,56,2.40
2010,06,03,04,57,3.80
2010,06,03,04,58,2.50
2010,06,03,04,59,0.40
2010,06,03,05,00,1.30
2010,06,03,05,01,1.00
2010,06,03,05,02,4.60
2010,06,03,05,03,1.20
2010,06,03,05,04,3.40
2010,06,03,05,05,3.40
2010,06,03,05,06,6.10
2010,06,03,05,07,6.00
2010,06,03,05,08,3.90
2010,06,03,05,09,7.00
2010,06,03,05,10,4.30
2010,06,03,05,11,3.50
2010,06,03,05,12,3.60
2010,06,03,05,13,1.40
2010,06,03,05,14,1.20
2010,06,03,05,15,4.00
2010,06,03,05,16,2.20
2010,06,03,05,17,1.70
2010,06,03,05,18,2.00
2010,06,03,05,19,2.00
2010,06,03,05,20,1.00
2010,06,03,05,21,1.30
2010,06,03,05,22,1.80
2010,06,03,05,23,1.40
2010,06,03,05,24,2.20
2010,06,03,05,25,2.40
2010,06,03,05,26,1.80
2010,06,03,05,27,0.20
2010,06,03,05,28,0.70
2010,06,03,05,29,2.50
2010,06,03,05,30,0.70
2010,06,03,05,31,1.00
2010,06,03,05,32,0.10
2010,06,03,05,33,1.00
2010,06,03,05,34,1.60
2010,06,03,05,35,5.10
2010,06,03,05,36,3.10
2010,06,03,05,37,4.00
2010,06,03,05,38,5.30
2010,06,03,05,39,5.20
2010,06,03,05,40,6.20
2010,06,03,05,41,3.70
2010,06,03,05,42,4.20
2010,06,03,05,43,3.90
2010,06,03,05,44,4.50
2010,06,03,05,45,5.90
2010,06,03,05,46,4.60
2010,06,03,05,47,5.20
2010,06,03,05,48,1.00
2010,06,03,05,49,1.00
2010,06,03,05,50,4.30
2010,06,03,05,51,2.70
2010,06,03,05,52,2.30
2010,06,03,05,53,2.00
2010,06,03,05,54,0.30
2010,06,03,05,55,2.70
2010,06,03,05,56,0.50
2010,06,03,05,57,0.30
2010,06,03,05,58,0.30
2010,06,03,05,59,0.20
2010,06,03,06,00,2.30
2010,06,03,06,01,5.70
2010,06,03,06,02,6.10
2010,06,03,06,03,4.90
2010,06,03,06,04,4.40
2010,06,03,06,05,5.60
2010,06,03,06,06,3.80
2010,06,03,06,07,4.10
2010,06,03,06,08,2.90
2010,06,03,06,09,4.10
2010,06,03,06,10,2.50
2010,06,03,06,11,3.50
2010,06,03,06,12,2.40
2010,06,03,06,13,0.40
2010,06,03,06,14,0.20
2010,06,03,06,15,1.80
2010,06,03,06,16,0.30
2010,06,03,06,17,1.20
2010,06,03,06,18,2.90
2010,06,03,06,19,1.60
2010,06,03,06,20,1.90
2010,06,03,06,21,0.50
2010,06,03,06,22,4.90
2010,06,03,06,23,0.50
2010,06,03,06,24,2.10
2010,06,03,06,25,0.90
2010,06,03,06,26,5.00
2010,06,03,06,27,4.60
2010,06,03,06,28,2.90
2010,06,03,06,29,1.80
2010,06,03,06,30,3.60
2010,06,03,06,31,1.80
2010,06,03,06,32,2.80
2010,06,03,06,33,2.50
2010,06,03,06,34,0.50
2010,06,03,06,35,0.10
2010,06,03,06,36,0.20
2010,06,03,06,37,0.00
2010,06,03,06,38,0.60
2010,06,03,06,39,1.00
2010,06,03,06,40,0.60
2010,06,03,06,41,0.90
2010,06,03,06,42,0.20
2010,06,03,06,43,0.10
2010,06,03,06,44,0.20
2010,06,03,06,45,0.20
2010,06,03,06,46,0.60
2010,06,03,06,47,0.10
2010,06,03,06,48,1.60
2010,06,03,06,49,0.30
2010,06,03,06,50,0.20
2010,06,03,06,51,2.40
2010,06,03,06,52,0.30
2010,06,03,06,53,0.10
2010,06,03,06,54,0.80
2010,06,03,06,55,1.20
2010,06,03,06,56,0.40
2010,06,03,06,57,0.30
2010,06,03,06,58,1.20
2010,06,03,06,59,0.10
2010,06,03,07,00,0.10
2010,06,03,07,01,0.10
2010,06,03,07,02,1.50
2010,06,03,07,03,0.50
2010,06,03,07,04,1.40
2010,06,03,07,05,1.70
2010,06,03,07,06,0.90
2010,06,03,07,07,0.00
2010,06,03,07,08,1.00
2010,06,03,07,09,0.60
2010,06,03,07,10,0.30
2010,06,03,07,11,1.00
2010,06,03,07,12,2.00
2010,06,03,07,13,0.80
2010,06,03,07,14,0.20
2010,06,03,07,15,0.50
2010,06,03,07,16,0.10
2010,06,03,07,17,0.10
2010,06,03,07,18,1.70
2010,06,03,07,19,2.50
2010,06,03,07,20,3.90
2010,06,03,07,21,0.70
2010,06,03,07,22,2.80
2010,06,03,07,23,0.40
2010,06,03,07,24,2.50
2010,06,03,07,25,3.10
2010,06,03,07,26,1.40
2010,06,03,07,27,0.30
2010,06,03,07,28,1.40
2010,06,03,07,29,0.50
2010,06,03,07,30,0.40
2010,06,03,07,31,1.30
2010,06,03,07,32,2.90
2010,06,03,07,33,2.80
2010,06,03,07,34,4.70
2010,06,03,07,35,4.00
2010,06,03,07,36,0.30
2010,06,03,07,37,0.00
2010,06,03,07,38,0.10
2010,06,03,07,39,0.20
2010,06,03,07,40,0.00
2010,06,03,07,41,0.20
2010,06,03,07,42,0.10
2010,06,03,07,43,0.00
2010,06,03,07,44,0.00
2010,06,03,07,45,0.00
2010,06,03,07,46,0.00
2010,06,03,07,47,0.00
2010,06,03,07,48,0.00
2010,06,03,07,49,0.20
2010,06,03,07,50,2.30
2010,06,03,07,51,0.40
2010,06,03,07,52,0.10
2010,06,03,07,53,1.90
2010,06,03,07,54,0.20
2010,06,03,07,55,0.00
2010,06,03,07,56,0.00
2010,06,03,07,57,0.00
2010,06,03,07,58,0.80
2010,06,03,07,59,0.00
2010,06,03,08,00,0.00
2010,06,03,08,01,0.10
2010,06,03,08,02,0.00
2010,06,03,08,03,0.10
2010,06,03,08,04,0.10
2010,06,03,08,05,0.10
2010,06,03,08,06,0.10
2010,06,03,08,07,0.70
2010,06,03,08,08,0.20
2010,06,03,08,09,0.20
2010,06,03,08,10,0.30
2010,06,03,08,11,0.30
2010,06,03,08,12,0.00
2010,06,03,08,13,0.00
2010,06,03,08,14,0.00
2010,06,03,08,15,0.20
2010,06,03,08,16,0.50
2010,06,03,08,17,0.10
2010,06,03,08,18,1.10
2010,06,03,08,19,3.20
2010,06,03,08,20,3.30
2010,06,03,08,21,0.70
2010,06,03,08,22,1.30
2010,06,03,08,23,0.60
2010,06,03,08,24,3.20
2010,06,03,08,25,4.80
2010,06,03,08,26,2.90
2010,06,03,08,27,3.80
2010,06,03,08,28,2.60
2010,06,03,08,29,3.30
2010,06,03,08,30,3.80
2010,06,03,08,31,2.60
2010,06,03,08,32,6.40
2010,06,03,08,33,8.00
2010,06,03,08,34,9.00
2010,06,03,08,35,9.30
2010,06,03,08,36,9.10
2010,06,03,08,37,6.40
2010,06,03,08,38,5.30
2010,06,03,08,39,4.80
2010,06,03,08,40,7.30
2010,06,03,08,41,6.70
2010,06,03,08,42,7.10
2010,06,03,08,43,6.80
2010,06,03,08,44,3.10
2010,06,03,08,45,4.60
2010,06,03,08,46,7.70
2010,06,03,08,47,8.80
2010,06,03,08,48,7.90
2010,06,03,08,49,7.40
2010,06,03,08,50,4.10
2010,06,03,08,51,6.50
2010,06,03,08,52,3.20
2010,06,03,08,53,1.30
2010,06,03,08,54,5.30
2010,06,03,08,55,4.10
2010,06,03,08,56,5.00
2010,06,03,08,57,4.40
2010,06,03,08,58,2.80
2010,06,03,08,59,5.20
2010,06,03,09,00,4.30
2010,06,03,09,01,8.50
2010,06,03,09,02,7.80
2010,06,03,09,03,8.40
2010,06,03,09,04,6.00
2010,06,03,09,05,1.30
2010,06,03,09,06,1.10
2010,06,03,09,07,1.00
2010,06,03,09,08,0.60
2010,06,03,09,09,0.30
2010,06,03,09,10,9.70
2010,06,03,09,11,5.80
2010,06,03,09,12,1.20
2010,06,03,09,13,1.90
2010,06,03,09,14,2.60
2010,06,03,09,15,5.30
2010,06,03,09,16,8.40
2010,06,03,09,17,8.10
2010,06,03,09,18,2.50
2010,06,03,09,19,3.00
2010,06,03,09,20,11.60
2010,06,03,09,21,8.50
2010,06,03,09,22,7.10
2010,06,03,09,23,2.00
2010,06,03,09,24,0.50
2010,06,03,09,25,2.10
2010,06,03,09,26,3.30
2010,06,03,09,27,10.60
2010,06,03,09,28,5.10
2010,06,03,09,29,4.70
2010,06,03,09,30,9.80
2010,06,03,09,31,7.70
2010,06,03,09,32,8.80
2010,06,03,09,33,6.40
2010,06,03,09,34,4.40
2010,06,03,09,35,6.10
2010,06,03,09,36,8.80
2010,06,03,09,37,11.40
2010,06,03,09,38,13.60
2010,06,03,09,39,9.80
2010,06,03,09,40,8.50
2010,06,03,09,41,8.30
2010,06,03,09,42,10.30
2010,06,03,09,43,10.30
2010,06,03,09,44,8.90
2010,06,03,09,45,10.80
2010,06,03,09,46,15.80
2010,06,03,09,47,9.10
2010,06,03,09,48,7.60
2010,06,03,09,49,3.10
2010,06,03,09,50,6.70
2010,06,03,09,51,15.90
2010,06,03,09,52,10.50
2010,06,03,09,53,7.60
2010,06,03,09,54,7.30
2010,06,03,09,55,10.50
2010,06,03,09,56,12.70
2010,06,03,09,57,10.60
2010,06,03,09,58,8.80
2010,06,03,09,59,10.70
2010,06,03,10,00,9.00
2010,06,03,10,01,10.80
2010,06,03,10,02,8.90
2010,06,03,10,03,4.10
2010,06,03,10,04,11.00
2010,06,03,10,05,11.90
2010,06,03,10,06,6.50
2010,06,03,10,07,8.80
2010,06,03,10,08,11.30
2010,06,03,10,09,6.40
2010,06,03,10,10,8.60
2010,06,03,10,11,7.40
2010,06,03,10,12,12.20
2010,06,03,10,13,8.80
2010,06,03,10,14,12.20
2010,06,03,10,15,10.80
2010,06,03,10,16,12.80
2010,06,03,10,17,10.90
2010,06,03,10,18,6.50
2010,06,03,10,19,9.50
2010,06,03,10,20,13.50
2010,06,03,10,21,15.80
2010,06,03,10,22,18.10
2010,06,03,10,23,16.60
2010,06,03,10,24,13.90
2010,06,03,10,25,14.90
2010,06,03,10,26,13.10
2010,06,03,10,27,7.50
2010,06,03,10,28,10.30
2010,06,03,10,29,20.80
2010,06,03,10,30,17.00
2010,06,03,10,31,17.80
2010,06,03,10,32,13.70
2010,06,03,10,33,17.60
2010,06,03,10,34,17.50
2010,06,03,10,35,18.70
2010,06,03,10,36,16.80
2010,06,03,10,37,15.80
2010,06,03,10,38,17.70
2010,06,03,10,39,16.70
2010,06,03,10,40,17.50
2010,06,03,10,41,18.80
2010,06,03,10,42,11.80
2010,06,03,10,43,7.60
2010,06,03,10,44,8.50
2010,06,03,10,45,15.80
2010,06,03,10,46,16.50
2010,06,03,10,47,13.50
2010,06,03,10,48,18.70
2010,06,03,10,49,14.30
2010,06,03,10,50,16.90
2010,06,03,10,51,11.00
2010,06,03,10,52,13.50
2010,06,03,10,53,11.40
2010,06,03,10,54,13.00
2010,06,03,10,55,15.10
2010,06,03,10,56,14.30
2010,06,03,10,57,11.90
2010,06,03,10,58,12.50
2010,06,03,10,59,15.20
2010,06,03,11,00,10.10
2010,06,03,11,01,15.00
2010,06,03,11,02,19.70
2010,06,03,11,03,16.80
2010,06,03,11,04,14.90
2010,06,03,11,05,14.40
2010,06,03,11,06,13.90
2010,06,03,11,07,15.00
2010,06,03,11,08,19.40
2010,06,03,11,09,17.90
2010,06,03,11,10,19.60
2010,06,03,11,11,13.00
2010,06,03,11,12,15.20
2010,06,03,11,13,16.50
2010,06,03,11,14,9.50
2010,06,03,11,15,7.10
2010,06,03,11,16,9.90
2010,06,03,11,17,19.40
2010,06,03,11,18,23.50
2010,06,03,11,19,18.90
2010,06,03,11,20,18.80
2010,06,03,11,21,16.30
2010,06,03,11,22,13.30
2010,06,03,11,23,14.20
2010,06,03,11,24,17.30
2010,06,03,11,25,19.20
2010,06,03,11,26,17.60
2010,06,03,11,27,13.50
2010,06,03,11,28,12.70
2010,06,03,11,29,18.80
2010,06,03,11,30,21.50
2010,06,03,11,31,17.10
2010,06,03,11,32,11.80
2010,06,03,11,33,9.80
2010,06,03,11,34,10.10
2010,06,03,11,35,10.10
2010,06,03,11,36,19.70
2010,06,03,11,37,18.40
2010,06,03,11,38,14.20
2010,06,03,11,39,16.10
2010,06,03,11,40,11.80
2010,06,03,11,41,14.70
2010,06,03,11,42,7.70
2010,06,03,11,43,9.30
2010,06,03,11,44,15.60
2010,06,03,11,45,17.40
2010,06,03,11,46,15.70
2010,06,03,11,47,18.90
2010,06,03,11,48,19.30
2010,06,03,11,49,18.00
2010,06,03,11,50,15.60
2010,06,03,11,51,14.40
2010,06,03,11,52,16.20
2010,06,03,11,53,14.30
2010,06,03,11,54,18.10
2010,06,03,11,55,8.10
2010,06,03,11,56,20.80
2010,06,03,11,57,17.40
2010,06,03,11,58,14.10
2010,06,03,11,59,16.90
2010,06,03,12,00,16.20
2010,06,03,12,01,19.30
2010,06,03,12,02,15.20
2010,06,03,12,03,13.60
2010,06,03,12,04,15.00
2010,06,03,12,05,13.70
2010,06,03,12,06,17.50
2010,06,03,12,07,14.50
2010,06,03,12,08,17.90
2010,06,03,12,09,15.80
2010,06,03,12,10,16.90
2010,06,03,12,11,16.50
2010,06,03,12,12,16.30
2010,06,03,12,13,18.20
2010,06,03,12,14,21.30
2010,06,03,12,15,16.70
2010,06,03,12,16,17.20
2010,06,03,12,17,15.00
2010,06,03,12,18,18.90
2010,06,03,12,19,15.90
2010,06,03,12,20,11.40
2010,06,03,12,21,18.70
2010,06,03,12,22,12.50
2010,06,03,12,23,12.80
2010,06,03,12,24,15.30
2010,06,03,12,25,11.30
2010,06,03,12,26,12.40
2010,06,03,12,27,13.30
2010,06,03,12,28,16.70
2010,06,03,12,29,20.00
2010,06,03,12,30,14.20
2010,06,03,12,31,14.90
2010,06,03,12,32,17.30
2010,06,03,12,33,12.70
2010,06,03,12,34,14.50
2010,06,03,12,35,14.30
2010,06,03,12,36,12.60
2010,06,03,12,37,21.80
2010,06,03,12,38,18.10
2010,06,03,12,39,18.50
2010,06,03,12,40,16.10
2010,06,03,12,41,18.00
2010,06,03,12,42,17.50
2010,06,03,12,43,17.90
2010,06,03,12,44,16.60
2010,06,03,12,45,17.20
2010,06,03,12,46,11.80
2010,06,03,12,47,14.80
2010,06,03,12,48,13.00
2010,06,03,12,49,14.10
2010,06,03,12,50,13.80
2010,06,03,12,51,12.30
2010,06,03,12,52,14.80
2010,06,03,12,53,9.20
2010,06,03,12,54,11.90
2010,06,03,12,55,9.80
2010,06,03,12,56,11.60
2010,06,03,12,57,11.40
2010,06,03,12,58,9.50
2010,06,03,12,59,9.70
2010,06,03,13,00,6.80
2010,06,03,13,01,8.80
2010,06,03,13,02,12.90
2010,06,03,13,03,9.00
2010,06,03,13,04,6.90
2010,06,03,13,05,7.10
2010,06,03,13,06,10.30
2010,06,03,13,07,13.30
2010,06,03,13,08,12.00
2010,06,03,13,09,17.30
2010,06,03,13,10,11.90
2010,06,03,13,11,18.40
2010,06,03,13,12,11.90
2010,06,03,13,13,10.20
2010,06,03,13,14,10.30
2010,06,03,13,15,15.80
2010,06,03,13,16,12.60
2010,06,03,13,17,8.00
2010,06,03,13,18,15.80
2010,06,03,13,19,15.30
2010,06,03,13,20,7.30
2010,06,03,13,21,13.40
2010,06,03,13,22,8.60
2010,06,03,13,23,8.50
2010,06,03,13,24,16.70
2010,06,03,13,25,13.30
2010,06,03,13,26,10.10
2010,06,03,13,27,9.70
2010,06,03,13,28,11.40
2010,06,03,13,29,12.00
2010,06,03,13,30,13.00
2010,06,03,13,31,7.10
2010,06,03,13,32,6.30
2010,06,03,13,33,7.70
2010,06,03,13,34,9.00
2010,06,03,13,35,5.80
2010,06,03,13,36,4.00
2010,06,03,13,37,7.20
2010,06,03,13,38,7.20
2010,06,03,13,39,8.90
2010,06,03,13,40,5.70
2010,06,03,13,41,8.50
2010,06,03,13,42,9.40
2010,06,03,13,43,7.80
2010,06,03,13,44,7.50
2010,06,03,13,45,7.70
2010,06,03,13,46,6.70
2010,06,03,13,47,8.00
2010,06,03,13,48,13.50
2010,06,03,13,49,10.20
2010,06,03,13,50,7.40
2010,06,03,13,51,6.70
2010,06,03,13,52,11.30
2010,06,03,13,53,12.40
2010,06,03,13,54,12.60
2010,06,03,13,55,15.60
2010,06,03,13,56,12.10
2010,06,03,13,57,8.90
2010,06,03,13,58,8.20
2010,06,03,13,59,4.80
2010,06,03,14,00,11.90
2010,06,03,14,01,9.70
2010,06,03,14,02,8.60
2010,06,03,14,03,8.20
2010,06,03,14,04,8.70
2010,06,03,14,05,7.90
2010,06,03,14,06,2.60
2010,06,03,14,07,5.10
2010,06,03,14,08,9.20
2010,06,03,14,09,9.40
2010,06,03,14,10,3.10
2010,06,03,14,11,1.30
2010,06,03,14,12,7.80
2010,06,03,14,13,11.20
2010,06,03,14,14,2.50
2010,06,03,14,15,8.40
2010,06,03,14,16,5.30
2010,06,03,14,17,3.60
2010,06,03,14,18,8.10
2010,06,03,14,19,3.80
2010,06,03,14,20,5.40
2010,06,03,14,21,5.40
2010,06,03,14,22,3.00
2010,06,03,14,23,1.10
2010,06,03,14,24,1.80
2010,06,03,14,25,0.10
2010,06,03,14,26,1.80
2010,06,03,14,27,9.20
2010,06,03,14,28,7.10
2010,06,03,14,29,6.50
2010,06,03,14,30,7.50
2010,06,03,14,31,2.50
2010,06,03,14,32,3.70
2010,06,03,14,33,1.40
2010,06,03,14,34,1.70
2010,06,03,14,35,2.90
2010,06,03,14,36,6.10
2010,06,03,14,37,4.30
2010,06,03,14,38,16.30
2010,06,03,14,39,17.40
2010,06,03,14,40,10.20
2010,06,03,14,41,7.70
2010,06,03,14,42,4.10
2010,06,03,14,43,16.10
2010,06,03,14,44,18.40
2010,06,03,14,45,11.00
2010,06,03,14,46,6.60
2010,06,03,14,47,8.10
2010,06,03,14,48,6.90
2010,06,03,14,49,7.80
2010,06,03,14,50,8.60
2010,06,03,14,51,6.20
2010,06,03,14,52,3.00
2010,06,03,14,53,4.60
2010,06,03,14,54,9.20
2010,06,03,14,55,11.90
2010,06,03,14,56,11.10
2010,06,03,14,57,12.30
2010,06,03,14,58,2.20
2010,06,03,14,59,1.10
2010,06,03,15,00,2.00
2010,06,03,15,01,7.20
2010,06,03,15,02,10.30
2010,06,03,15,03,13.70
2010,06,03,15,04,11.80
2010,06,03,15,05,10.80
2010,06,03,15,06,8.40
2010,06,03,15,07,7.80
2010,06,03,15,08,14.10
2010,06,03,15,09,14.80
2010,06,03,15,10,11.50
2010,06,03,15,11,15.20
2010,06,03,15,12,10.10
2010,06,03,15,13,4.30
2010,06,03,15,14,3.80
2010,06,03,15,15,8.70
2010,06,03,15,16,13.40
2010,06,03,15,17,6.70
2010,06,03,15,18,1.90
2010,06,03,15,19,4.40
2010,06,03,15,20,15.30
2010,06,03,15,21,18.50
2010,06,03,15,22,12.70
2010,06,03,15,23,14.70
2010,06,03,15,24,13.80
2010,06,03,15,25,9.40
2010,06,03,15,26,8.90
2010,06,03,15,27,3.50
2010,06,03,15,28,0.20
2010,06,03,15,29,9.10
2010,06,03,15,30,3.80
2010,06,03,15,31,0.90
2010,06,03,15,32,1.40
2010,06,03,15,33,3.10
2010,06,03,15,34,0.30
2010,06,03,15,35,2.50
2010,06,03,15,36,4.90
2010,06,03,15,37,0.50
2010,06,03,15,38,0.80
2010,06,03,15,39,3.90
2010,06,03,15,40,9.50
2010,06,03,15,41,5.30
2010,06,03,15,42,3.20
2010,06,03,15,43,8.10
2010,06,03,15,44,11.00
2010,06,03,15,45,6.10
2010,06,03,15,46,6.90
2010,06,03,15,47,1.50
2010,06,03,15,48,0.30
2010,06,03,15,49,1.70
2010,06,03,15,50,6.70
2010,06,03,15,51,8.40
2010,06,03,15,52,7.50
2010,06,03,15,53,4.80
2010,06,03,15,54,1.90
2010,06,03,15,55,4.70
2010,06,03,15,56,10.60
2010,06,03,15,57,8.10
2010,06,03,15,58,10.60
2010,06,03,15,59,10.40
2010,06,03,16,00,9.70
2010,06,03,16,01,10.90
2010,06,03,16,02,9.70
2010,06,03,16,03,3.70
2010,06,03,16,04,3.50
2010,06,03,16,05,8.70
2010,06,03,16,06,5.20
2010,06,03,16,07,14.90
2010,06,03,16,08,9.90
2010,06,03,16,09,8.70
2010,06,03,16,10,3.80
2010,06,03,16,11,10.10
2010,06,03,16,12,5.70
2010,06,03,16,13,9.70
2010,06,03,16,14,8.90
2010,06,03,16,15,7.70
2010,06,03,16,16,12.00
2010,06,03,16,17,8.90
2010,06,03,16,18,3.50
2010,06,03,16,19,6.10
2010,06,03,16,20,3.70
2010,06,03,16,21,0.30
2010,06,03,16,22,0.90
2010,06,03,16,23,2.90
2010,06,03,16,24,6.00
2010,06,03,16,25,7.40
2010,06,03,16,26,8.70
2010,06,03,16,27,7.60
2010,06,03,16,28,6.20
2010,06,03,16,29,2.30
2010,06,03,16,30,0.90
2010,06,03,16,31,2.60
2010,06,03,16,32,0.90
2010,06,03,16,33,0.50
2010,06,03,16,34,5.80
2010,06,03,16,35,13.00
2010,06,03,16,36,5.10
2010,06,03,16,37,6.00
2010,06,03,16,38,8.00
2010,06,03,16,39,2.10
2010,06,03,16,40,3.60
2010,06,03,16,41,7.70
2010,06,03,16,42,12.10
2010,06,03,16,43,11.80
2010,06,03,16,44,9.50
2010,06,03,16,45,6.60
2010,06,03,16,46,7.70
2010,06,03,16,47,2.80
2010,06,03,16,48,5.50
2010,06,03,16,49,5.90
2010,06,03,16,50,9.20
2010,06,03,16,51,11.20
2010,06,03,16,52,7.40
2010,06,03,16,53,4.70
2010,06,03,16,54,1.00
2010,06,03,16,55,0.30
2010,06,03,16,56,0.40
2010,06,03,16,57,1.20
2010,06,03,16,58,0.90
2010,06,03,16,59,1.70
2010,06,03,17,00,1.60
2010,06,03,17,01,0.30
2010,06,03,17,02,1.00
2010,06,03,17,03,7.00
2010,06,03,17,04,7.70
2010,06,03,17,05,6.90
2010,06,03,17,06,3.10
2010,06,03,17,07,3.20
2010,06,03,17,08,4.50
2010,06,03,17,09,1.10
2010,06,03,17,10,2.50
2010,06,03,17,11,0.80
2010,06,03,17,12,0.70
2010,06,03,17,13,0.10
2010,06,03,17,14,3.80
2010,06,03,17,15,3.10
2010,06,03,17,16,3.70
2010,06,03,17,17,5.70
2010,06,03,17,18,4.60
2010,06,03,17,19,1.40
2010,06,03,17,20,2.10
2010,06,03,17,21,6.20
2010,06,03,17,22,6.40
2010,06,03,17,23,9.10
2010,06,03,17,24,6.80
2010,06,03,17,25,8.90
2010,06,03,17,26,4.50
2010,06,03,17,27,1.70
2010,06,03,17,28,0.90
2010,06,03,17,29,0.80
2010,06,03,17,30,1.20
2010,06,03,17,31,2.20
2010,06,03,17,32,0.60
2010,06,03,17,33,0.80
2010,06,03,17,34,0.90
2010,06,03,17,35,0.00
2010,06,03,17,36,0.20
2010,06,03,17,37,1.20
2010,06,03,17,38,3.60
2010,06,03,17,39,5.40
2010,06,03,17,40,5.40
2010,06,03,17,41,0.60
2010,06,03,17,42,0.20
2010,06,03,17,43,0.20
2010,06,03,17,44,0.10
2010,06,03,17,45,0.10
2010,06,03,17,46,0.60
2010,06,03,17,47,0.50
2010,06,03,17,48,2.60
2010,06,03,17,49,2.50
2010,06,03,17,50,1.90
2010,06,03,17,51,1.80
2010,06,03,17,52,0.70
2010,06,03,17,53,0.60